[[{"header":{"parameterUnit":"m.s-1","parameterCategory":1,"la1":30.2992,"la2":30.254,"lo1":-89.0895,"lo2":-89.0443,"dy":0.0025,"dx":0.0025,"nx":19,"ny":19,"refTime":"2026-04-27T21:00:00:Z","depth":0,"parameterNumber":2,"parameterNumberName":"U-component_of_WINDS"},"data":[0,0,0,-3.835,-3.8352,-3.8446,-3.8446,-3.8563,-3.8564,0,0,0,0,0,0,0,0,0,0,0,-3.8323,-3.8323,-3.835,-3.8352,-3.8446,-3.8446,-3.8563,-3.8564,0,0,0,0,0,0,0,0,0,0,0,-3.8322,-3.8323,-3.8324,-3.8353,-3.8446,-3.8446,-3.8562,-3.8493,0,0,0,0,0,0,0,0,0,0,-3.8402,-3.8377,-3.8323,-3.8324,-3.8353,-3.8445,-3.8446,-3.8489,-3.8497,-3.852,0,-3.8542,0,-3.8555,-3.8572,-3.8572,0,0,0,-3.8352,-3.8371,-3.8396,-3.8324,-3.8354,-3.8445,-3.8403,-3.8494,-3.8502,-3.853,-3.8543,-3.8548,-3.8557,-3.8572,-3.8573,-3.871,-3.871,0,0,-3.8347,-3.8339,-3.839,-3.8402,-3.8389,-3.84,-3.8406,-3.8499,-3.8512,-3.8544,-3.8551,-3.8559,-3.8573,-3.8574,-3.8709,-3.871,0,0,0,-3.8332,-3.8335,-3.8358,-3.8397,-3.8414,-3.8403,-3.841,-3.8508,-3.8516,-3.8552,-3.856,-3.8574,-3.8575,-3.8708,-3.8709,-3.8733,0,0,0,-3.8329,-3.8327,-3.8356,-3.8352,-3.8412,-3.8462,-3.8417,-3.851,-3.8521,-3.8559,-3.8574,-3.8576,-3.8708,-3.8709,-3.8731,-3.8745,0,0,0,-3.8316,-3.8325,-3.8339,-3.8352,-3.8392,-3.8461,-3.8475,-3.8512,-3.8526,-3.8572,-3.8577,-3.8707,-3.8709,-3.8729,-3.8742,-3.8777,0,0,0,-3.83,-3.8359,-3.8339,-3.8408,-3.8391,-3.8476,-3.8474,-3.8538,-3.8581,-3.8574,-3.8708,-3.8709,-3.8728,-3.874,-3.8775,-3.8804,-3.8816,0,0,-3.8369,-3.8367,-3.8408,-3.8393,-3.848,-3.8462,-3.8552,-3.8599,-3.861,-3.8675,-3.8679,-3.8732,-3.8741,-3.8777,-3.889,-3.8899,0,0,0,-3.8427,-3.8456,-3.8481,-3.8522,-3.856,-3.8593,-3.8627,-3.8644,-3.87,-3.8643,-3.8755,-3.8761,-3.8782,-3.8797,-3.8805,-3.8822,-3.8716,-3.8716,-3.8716,-3.8512,-3.8525,-3.8593,-3.8617,-3.8656,-3.8691,-3.8724,-3.8752,-3.8753,-3.8779,-3.8798,-3.8865,-3.8882,-3.8888,-3.8906,-3.8816,-3.8816,-3.8816,-3.8817,-3.8614,-3.8656,-3.8656,-3.8722,-3.8735,-3.879,-3.8825,-3.8824,-3.8876,-3.8852,-3.8871,-3.8843,-3.8898,-3.8914,-3.8818,-3.8818,-3.8818,-3.8818,-3.8818,-3.8669,-3.8692,-3.8713,-3.8773,-3.8818,-3.8839,-3.8889,-3.8899,-3.8908,-3.8928,-3.8947,-3.8947,-3.8946,-3.8937,-3.8937,-3.8937,-3.8937,-3.8938,-3.8938,-3.8718,-3.8741,-3.8782,-3.8828,-3.8855,-3.8892,-3.8927,-3.8954,-3.8985,-3.8988,-3.8989,-3.8985,-3.8902,-3.888,-3.8941,-3.8941,-3.894,-3.894,-3.894,-3.8813,-3.8793,-3.8857,-3.8884,-3.8938,-3.898,-3.8993,-3.9046,-3.907,-3.9094,-3.9087,-3.9025,-3.9022,-3.9016,-3.8997,-3.9086,-3.9086,-3.9086,-3.9086,-3.8858,-3.8858,-3.8926,-3.8968,-3.9012,-3.9029,-3.91,-3.9128,-3.9153,-3.9168,-3.9157,-3.9134,-3.9127,-3.9129,-3.912,-3.9102,-3.9216,-3.9216,-3.9216,-3.8916,-3.8921,-3.8979,-3.9005,-3.9048,-3.9083,-3.9149,-3.9197,-3.9222,-3.9221,-3.9179,-3.9174,-3.9137,-3.9125,-3.912,-3.9107,-3.9075,0,0]},{"header":{"parameterUnit":"m.s-1","parameterCategory":1,"la1":30.2992,"la2":30.254,"lo1":-89.0895,"lo2":-89.0443,"dy":0.0025,"dx":0.0025,"nx":19,"ny":19,"refTime":"2026-04-27T21:00:00:Z","depth":0,"parameterNumber":3,"parameterNumberName":"V-component_of_WINDS"},"data":[0,0,0,4.3761,4.3764,4.3935,4.3935,4.4129,4.4131,0,0,0,0,0,0,0,0,0,0,0,4.3699,4.37,4.3761,4.3765,4.3934,4.3935,4.4129,4.4131,0,0,0,0,0,0,0,0,0,0,0,4.3699,4.37,4.3701,4.3765,4.3934,4.3935,4.4129,4.4008,0,0,0,0,0,0,0,0,0,0,4.3847,4.3779,4.37,4.3701,4.3766,4.3934,4.3935,4.4003,4.4016,4.4043,0,4.4067,0,4.4102,4.4143,4.4143,0,0,0,4.3773,4.3768,4.3825,4.3701,4.3768,4.3934,4.386,4.401,4.4025,4.406,4.407,4.4078,4.4105,4.4144,4.4145,4.4283,4.4283,0,0,4.3763,4.3723,4.3815,4.3834,4.3809,4.3855,4.3865,4.4019,4.4026,4.4071,4.4083,4.4108,4.4145,4.4146,4.4283,4.4283,0,0,0,4.3731,4.3716,4.3769,4.3825,4.3858,4.3859,4.3872,4.4019,4.404,4.4085,4.4111,4.4146,4.4148,4.4283,4.4283,4.426,0,0,0,4.3726,4.3697,4.3765,4.3742,4.3854,4.3941,4.3868,4.403,4.4048,4.411,4.4146,4.415,4.4282,4.4283,4.426,4.4255,0,0,0,4.3692,4.3694,4.3715,4.3739,4.3811,4.394,4.397,4.4035,4.4064,4.4143,4.415,4.4282,4.4283,4.426,4.4256,4.4281,0,0,0,4.3644,4.369,4.3713,4.3774,4.3809,4.3924,4.3969,4.4056,4.4121,4.4147,4.4283,4.4283,4.426,4.4256,4.4281,4.4297,4.43,0,0,4.3679,4.3692,4.3731,4.3758,4.3858,4.3901,4.3998,4.4095,4.4137,4.4231,4.4235,4.426,4.4256,4.4281,4.4325,4.4327,0,0,0,4.3729,4.3757,4.3792,4.3854,4.393,4.3994,4.4081,4.4116,4.4199,4.4178,4.4276,4.4275,4.4292,4.4301,4.4303,4.432,4.4285,4.4285,4.4285,4.3722,4.3776,4.3844,4.3918,4.3977,4.4066,4.4118,4.4181,4.4217,4.4239,4.4268,4.4288,4.4297,4.4299,4.4316,4.4279,4.4279,4.4279,4.4279,4.378,4.3828,4.3875,4.3959,4.4014,4.4084,4.417,4.4193,4.4265,4.427,4.4288,4.4291,4.4299,4.4317,4.4277,4.4278,4.4278,4.4278,4.4278,4.3783,4.3816,4.3859,4.3954,4.402,4.4092,4.416,4.4207,4.4252,4.4269,4.4305,4.4306,4.4313,4.4282,4.4282,4.4282,4.4283,4.4283,4.4283,4.377,4.382,4.3872,4.3957,4.4002,4.4068,4.4157,4.4202,4.4265,4.4294,4.4294,4.4328,4.429,4.428,4.4284,4.4284,4.4284,4.4283,4.4283,4.3812,4.381,4.3891,4.3937,4.404,4.4102,4.4161,4.425,4.4294,4.4325,4.4355,4.4319,4.4335,4.4334,4.4327,4.4343,4.4343,4.4343,4.4343,4.3816,4.3829,4.3923,4.3993,4.4067,4.4129,4.4216,4.4285,4.4354,4.4385,4.4389,4.4382,4.4379,4.4397,4.4395,4.4389,4.442,4.442,4.442,4.3846,4.3868,4.3936,4.4006,4.4089,4.4159,4.4243,4.432,4.4398,4.4425,4.441,4.4406,4.4396,4.439,4.4418,4.4413,4.4403,0,0]}]]